Clarksburg, WV

6:32 AM EDT on June 28, 2017 (GMT -0400)
Benedum

Weather History for KCKB - March, 2012

Change the Weather History Date:

Sunday, March 11, 2012

  Actual Average Record
Temperature  
Mean Temperature 47 °F 40 °F  
Max Temperature 66 °F 50 °F 78 °F (1973)
Min Temperature 28 °F 30 °F 7 °F (1933)
Degree Days  
Heating Degree Days 18 25  
Month to date heating degree days 293  
Since 1 July heating degree days 4254  
Cooling Degree Days 0 0  
Month to date cooling degree days 0  
Year to date cooling degree days 0  
Moisture  
Dew Point 25 °F    
Average Humidity 45    
Maximum Humidity 78    
Minimum Humidity 20    
Precipitation  
Precipitation 0.00 in 0.12 in 1.44 in (1935)
Month to date precipitation 1.24  
Year to date precipitation 7.83  
Sea Level Pressure  
Sea Level Pressure 30.38 in    
Wind  
Wind Speed 2 mph (WSW)    
Max Wind Speed 12 mph    
Max Gust Speed -    
Visibility 10 miles    
Events      
T = Trace of Precipitation, MM = Missing Value Source: NWS Daily Summary

Daily Weather History Graph

Daily Weather History Graph

Search for Another Location

Airport or City:

Trip Planner

Search our weather history database for the weather conditions in past years. The results will help you decide how hot, cold, wet, or windy it might be!

Date:

Astronomy

Mar. 11, 2012 Rise Set
Actual Time 7:37 AM EDT 7:24 PM EDT
Civil Twilight 7:11 AM EDT 7:51 PM EDT
Nautical Twilight 6:40 AM EDT 8:22 PM EDT
Astronomical Twilight 6:08 AM EDT 8:53 PM EDT
Moon 11:44 PM EDT (3/11) 9:14 AM EDT (3/11)
Length of Visible Light 12h 39m
Length of Day
11h 46m
Waning Gibbous, 85% of the Moon is Illuminated
Mar 11
Waning Gibbous
Mar 14
Last Quarter
Mar 22
New
Mar 30
First Quarter
Apr 6
Full

Hourly Weather History & Observations

Time (EDT) Temp. Dew Point Humidity Pressure Visibility Wind Dir Wind Speed Gust Speed Precip Events Conditions
12:53 AM 30.9 °F 21.0 °F 67% 30.43 in 10.0 mi Calm Calm - N/A   Clear
1:53 AM 30.0 °F 21.9 °F 72% 30.42 in 10.0 mi Calm Calm - N/A   Clear
3:53 AM 30.9 °F 19.9 °F 64% 30.41 in 10.0 mi Calm Calm - N/A   Clear
4:53 AM 28.9 °F 21.0 °F 72% 30.41 in 10.0 mi Calm Calm - N/A   Clear
5:53 AM 28.0 °F 21.9 °F 78% 30.42 in 10.0 mi Calm Calm - N/A   Clear
6:53 AM 28.9 °F 21.9 °F 75% 30.43 in 10.0 mi Calm Calm - N/A   Clear
8:53 AM 33.1 °F 25.0 °F 72% 30.46 in 10.0 mi Calm Calm - N/A   Clear
9:53 AM 39.0 °F 27.0 °F 62% 30.47 in 10.0 mi Calm Calm - N/A   Clear
10:53 AM 50.0 °F 26.1 °F 39% 30.47 in 10.0 mi Calm Calm - N/A   Clear
11:53 AM 57.0 °F 26.1 °F 30% 30.45 in 10.0 mi SW 8.1 mph - N/A   Clear
12:53 PM 61.0 °F 25.0 °F 25% 30.43 in 10.0 mi WSW 6.9 mph - N/A   Clear
1:53 PM 64.0 °F 26.1 °F 24% 30.41 in 10.0 mi West 6.9 mph - N/A   Clear
2:53 PM 64.9 °F 24.1 °F 21% 30.39 in 10.0 mi SW 11.5 mph - N/A   Clear
3:53 PM 64.9 °F 24.1 °F 21% 30.35 in 10.0 mi WSW 9.2 mph - N/A   Clear
4:53 PM 66.9 °F 24.1 °F 20% 30.33 in 10.0 mi West 4.6 mph - N/A   Clear
5:53 PM 64.9 °F 24.1 °F 21% 30.32 in 10.0 mi WSW 6.9 mph - N/A   Clear
6:53 PM 62.1 °F 24.1 °F 23% 30.31 in 10.0 mi Calm Calm - N/A   Clear
7:53 PM 57.9 °F 27.0 °F 31% 30.31 in 10.0 mi Calm Calm - N/A   Clear
8:53 PM 54.0 °F 27.0 °F 35% 30.31 in 10.0 mi Calm Calm - N/A   Clear
9:53 PM 51.1 °F 28.0 °F 41% 30.32 in 10.0 mi Calm Calm - N/A   Clear
10:53 PM 48.0 °F 28.9 °F 48% 30.32 in 10.0 mi Calm Calm - N/A   Clear
11:53 PM 48.0 °F 30.0 °F 50% 30.30 in 10.0 mi Calm Calm - N/A   Clear
12:53 AM 46.0 °F 30.0 °F 54% 30.29 in 10.0 mi Calm Calm - N/A   Clear